This is the latest recevied weather packets stored in our database for station/object AG1T-20. If no packets are shown the sender has not sent any weather packets the latest 10 day(s).
| Time | Temp. | Humidity | Pressure | Rain* | Wind** | Luminosity | Snow |
|---|---|---|---|---|---|---|---|
| 1788145204 | 17.78° C | 56% | 1019.2 hPa | 0 mm | - | 0 W/m² | - |
| 1788144605 | 18.89° C | 52% | 1018.6 hPa | 0 mm | - | 0 W/m² | - |
| 1788144004 | 18.33° C | 54% | 1018.6 hPa | 0 mm | - | 0 W/m² | - |
| 1788143404 | 19.44° C | 50% | 1018.6 hPa | 0 mm | - | 0 W/m² | - |
| 1788142804 | 19.44° C | 50% | 1018.6 hPa | 0 mm | - | 0 W/m² | - |
| 1788142205 | 19.44° C | 45% | 1018.6 hPa | 0 mm | - | 1 W/m² | - |
| 1788141604 | 20.56° C | 45% | 1018.6 hPa | 0 mm | - | 4 W/m² | - |
| 1788141004 | 21.67° C | 39% | 1018.5 hPa | 0 mm | - | 8 W/m² | - |
| 1788140404 | 23.33° C | 36% | 1018.5 hPa | 0 mm | - | 15 W/m² | - |
| 1788139805 | 24.44° C | 35% | 1018.5 hPa | 0 mm | - | 21 W/m² | - |
| 1788139204 | 24.44° C | 32% | 1018.5 hPa | 0 mm | - | 24 W/m² | - |
| 1788138605 | 25° C | 34% | 1018.5 hPa | 0 mm | - | 27 W/m² | - |
| 1788138004 | 25° C | 32% | 1018.5 hPa | 0 mm | - | 31 W/m² | - |
| 1788137404 | 26.67° C | 31% | 1018.7 hPa | 0 mm | - | 34 W/m² | - |
| 1788136804 | 26.11° C | 29% | 1018.7 hPa | 0 mm | - | 39 W/m² | - |
| 1788136204 | 25.56° C | 29% | 1018.7 hPa | 0 mm | - | 46 W/m² | - |
| 1788135604 | 26.67° C | 30% | 1018.7 hPa | 0 mm | - | 55 W/m² | - |
| 1788135004 | 27.22° C | 28% | 1018.7 hPa | 0 mm | - | 66 W/m² | - |
| 1788134404 | 26.67° C | 32% | 1018.7 hPa | 0 mm | - | 80 W/m² | - |
| 1788133804 | 26.67° C | 29% | 1018.9 hPa | 0 mm | - | 98 W/m² | - |
| 1788133204 | 26.67° C | 33% | 1018.9 hPa | 0 mm | - | 117 W/m² | - |
| 1788132605 | 26.67° C | 33% | 1018.9 hPa | 0 mm | - | 139 W/m² | - |
| 1788132004 | 26.67° C | 31% | 1018.9 hPa | 0 mm | - | 166 W/m² | - |
| 1788131405 | 26.67° C | 31% | 1018.9 hPa | 0 mm | - | 191 W/m² | - |
| 1788130804 | 26.67° C | 35% | 1018.9 hPa | 0 mm | - | 195 W/m² | - |
* Rain latest hour (hover to see other rain measurements)
** Current wind speed in m/s (hover to see current wind gust speed)